| time (UTC) | temp C | wind direction | speed KPH | gust KPH | rain 1hr cm | rain 24hr cm | rain mn cm | humidity % | barometer mb |
| 20260502151351 | 18 | 318 | 4.8 | 8.0 | 0.00 | 0.00 | 0.00 | 77 | |
| 20260502121341 | 10 | 122 | 1.6 | 3.2 | 0.00 | 0.00 | 0.00 | 99 | |
| 20260502114340 | 10 | 87 | 1.6 | 3.2 | 0.00 | 0.00 | 0.00 | 99 | |
| 20260502111336 | 10 | 83 | 1.6 | 3.2 | 0.00 | 0.00 | 0.00 | 99 | |
| 20260502104332 | 10 | 127 | 0.0 | 1.6 | 0.00 | 0.00 | 0.00 | 99 | |
| 20260502101327 | 10 | 2 | 4.8 | 4.8 | 0.00 | 0.00 | 0.00 | 99 | |
| 20260502091326 | 11 | 293 | 1.6 | 8.0 | 0.00 | 0.00 | 0.00 | 98 | |
| 20260502071320 | 12 | 205 | 1.6 | 8.0 | 0.00 | 0.00 | 0.00 | 96 | |
| 20260502064318 | 12 | 89 | 1.6 | 4.8 | 0.00 | 0.00 | 0.00 | 96 | |
| 20260502061315 | 12 | 354 | 4.8 | 8.0 | 0.00 | 0.00 | 0.00 | 96 | |
| 20260502054310 | 12 | 61 | 6.4 | 11.3 | 0.00 | 0.00 | 0.00 | 96 | |
| 20260502051308 | 12 | 286 | 3.2 | 11.3 | 0.00 | 0.00 | 0.00 | 97 | |
| 20260502044305 | 12 | 302 | 4.8 | 8.0 | 0.00 | 2.41 | 2.41 | 99 | |
| 20260502041302 | 12 | 348 | 3.2 | 9.7 | 0.00 | 2.41 | 2.41 | 99 | |
| 20260502034302 | 12 | 15 | 3.2 | 4.8 | 0.00 | 2.41 | 2.41 | 99 | |
| 20260502031258 | 13 | 338 | 4.8 | 9.7 | 0.00 | 2.41 | 2.41 | 99 | |
| 20260502024256 | 13 | 307 | 4.8 | 11.3 | 0.00 | 2.41 | 2.41 | 99 | |
| 20260502021251 | 13 | 77 | 4.8 | 8.0 | 0.00 | 2.41 | 2.41 | 99 | |
| 20260502014250 | 13 | 4 | 9.7 | 12.9 | 0.00 | 2.41 | 2.41 | 99 | |
| 20260502011247 | 13 | 347 | 6.4 | 11.3 | 0.00 | 2.41 | 2.41 | 99 | |
| 20260502004247 | 13 | 324 | 8.0 | 11.3 | 0.00 | 2.41 | 2.41 | 99 | |
| 20260502001242 | 14 | 33 | 3.2 | 14.5 | 0.00 | 2.41 | 2.41 | 99 | |
| 20260501234239 | 15 | 155 | 1.6 | 4.8 | 0.00 | 2.41 | 2.41 | 99 | |
| 20260501231234 | 15 | 278 | 3.2 | 3.2 | 0.00 | 2.41 | 2.41 | 99 | |
| 20260501224231 | 15 | 314 | 6.4 | 14.5 | 0.00 | 2.41 | 2.41 | 98 | |
| 20260501221228 | 15 | 338 | 4.8 | 11.3 | 0.00 | 2.41 | 2.41 | 99 | |
| 20260501214224 | 15 | 329 | 4.8 | 9.7 | 0.00 | 2.41 | 2.41 | 99 | |
| 20260501211221 | 15 | 21 | 1.6 | 8.0 | 0.00 | 2.41 | 2.41 | 99 | |
| 20260501204219 | 15 | 51 | 4.8 | 11.3 | 0.00 | 2.41 | 2.41 | 99 | |
| 20260501201217 | 16 | 339 | 8.0 | 12.9 | 0.00 | 2.41 | 2.41 | 99 | |
| 20260501194214 | 16 | 97 | 1.6 | 4.8 | 0.00 | 2.41 | 2.41 | 99 | |
| 20260501191210 | 16 | 138 | 1.6 | 3.2 | 0.00 | 2.41 | 2.41 | 99 | |
| 20260501184208 | 16 | 200 | 1.6 | 9.7 | 0.00 | 2.41 | 2.41 | 99 | |
| 20260501181207 | 16 | 346 | 6.4 | 14.5 | 0.00 | 2.41 | 2.41 | 99 | |
| 20260501174206 | 16 | 354 | 4.8 | 8.0 | 0.00 | 2.41 | 2.41 | 99 | |
| 20260501171202 | 16 | 326 | 6.4 | 9.7 | 0.00 | 2.41 | 2.41 | 99 | |
| 20260501164202 | 16 | 67 | 1.6 | 8.0 | 0.00 | 2.41 | 2.41 | 99 | |
| 20260501161200 | 16 | 331 | 11.3 | 16.1 | 0.00 | 2.41 | 2.41 | 99 | |
| 20260501154159 | 16 | 303 | 1.6 | 3.2 | 0.00 | 2.41 | 2.41 | 99 |